Wind_Speed
35 36 36 35 36 37 36 32 29 28 28 27 26 25 24 23 23 22 21 21 21 20 19 17 17 16 15 15 14 13 13 11 10 9 9 8 7 7 6 5 5 5 5 4 4 5 5 6 7
37 37 38 38 39 37 35 32 30 29 28 28 28 27 26 25 24 23 23 23 23 22 21 20 19 17 16 16 16 15 15 13 12 11 10 10 9 8 7 6 6 5 5 5 5 6 6 7 8
38 38 38 39 40 37 34 32 31 30 29 29 29 28 27 26 25 24 24 24 24 24 23 22 21 20 18 17 17 17 16 15 13 13 12 11 11 10 8 8 7 6 6 6 6 7 8 8 9
39 41 41 41 40 37 35 32 31 31 30 30 30 30 29 27 26 26 25 26 26 25 24 24 22 22 20 19 19 18 17 16 15 14 14 13 11 11 10 9 8 8 8 8 8 8 9 10 10
40 42 42 42 40 39 38 35 33 32 32 32 32 31 30 28 27 27 26 27 27 27 26 25 24 23 22 21 20 20 19 18 17 16 15 14 13 12 11 11 10 9 9 10 10 10 10 11 11
40 42 43 42 40 39 39 37 35 34 33 33 33 32 31 30 28 28 28 28 28 28 27 26 25 24 24 23 22 21 21 20 19 18 17 16 15 14 13 12 12 11 11 11 11 11 11 12 12
40 42 43 42 41 41 40 39 37 36 35 34 34 33 32 30 29 29 29 29 29 29 29 28 27 26 25 25 24 23 22 22 21 20 19 18 17 16 15 14 13 13 12 12 12 12 13 13 14
40 42 43 43 42 42 40 40 38 37 37 36 36 35 33 31 30 30 30 29 29 30 30 29 28 27 27 27 26 25 24 24 23 22 21 20 18 18 16 15 15 14 14 14 14 14 14 15 15
39 41 42 42 42 41 40 40 39 39 39 38 37 36 34 33 31 30 30 30 29 30 30 29 29 29 28 28 28 27 26 26 25 24 23 22 20 20 19 17 17 16 16 16 16 16 16 16 17
38 41 40 40 42 42 41 41 40 41 41 40 39 38 36 34 33 32 30 30 30 30 30 31 30 30 30 30 29 29 28 27 27 26 25 24 23 22 21 20 19 18 18 18 18 18 18 18 18
38 38 38 40 42 42 41 41 41 42 42 40 40 40 38 36 35 33 32 31 31 30 30 31 31 31 31 31 31 30 29 29 29 28 28 26 25 24 23 22 21 20 20 20 20 20 20 21 21
35 36 38 40 41 42 41 41 42 43 42 40 40 40 39 37 36 35 34 34 33 32 31 31 32 32 32 32 32 31 30 30 31 30 29 29 27 26 25 24 23 23 22 22 22 22 22 22 22
33 35 37 40 40 41 41 42 43 44 43 42 41 40 38 37 38 36 35 35 35 34 33 32 32 33 33 33 33 33 33 32 32 32 31 31 30 28 27 26 25 25 24 25 25 24 23 23 24
32 34 36 38 40 41 41 41 43 44 45 44 43 42 40 39 39 39 37 37 37 36 36 34 33 34 35 36 35 34 34 33 33 33 32 32 32 31 30 29 28 27 27 27 26 25 25 25 25
32 34 36 37 39 40 41 42 42 42 44 43 43 43 42 41 39 39 39 38 37 38 37 37 36 35 36 36 36 36 36 35 34 34 34 34 34 33 32 31 30 29 29 29 28 28 28 27 27
31 34 35 36 37 38 40 42 41 42 43 43 43 43 43 42 41 40 40 39 38 38 39 39 38 37 37 36 36 37 37 36 36 35 35 35 35 35 33 33 32 32 31 30 31 30 30 29 29
32 33 34 35 36 37 39 40 41 43 44 44 44 43 43 43 42 41 40 40 39 39 39 41 40 38 39 38 37 36 38 38 38 37 37 36 36 37 36 34 34 34 33 32 32 33 32 31 31
29 30 32 34 35 36 38 40 41 43 44 44 44 44 43 43 44 43 42 41 42 41 41 41 42 41 41 40 39 38 39 39 39 39 39 38 37 37 37 37 36 36 36 36 35 34 34 33 33
26 27 28 31 33 34 36 38 40 42 44 44 44 44 43 43 44 45 44 43 43 44 43 42 43 41 42 41 41 42 40 40 40 40 40 40 39 38 38 38 37 37 37 37 37 37 35 34 34
22 24 26 27 28 30 33 36 39 40 41 43 43 43 42 43 44 44 44 45 44 44 43 43 43 42 42 43 42 42 42 41 41 41 42 42 42 40 39 39 39 38 38 38 38 38 38 37 35
17 21 23 26 27 29 30 32 35 38 39 40 42 42 42 42 43 43 42 43 44 44 44 43 43 44 44 44 44 43 41 41 42 41 42 42 42 43 42 41 40 39 38 38 38 39 40 39 37
17 17 20 23 25 26 29 31 31 33 36 38 40 41 42 43 43 43 44 43 44 44 45 45 46 46 46 45 44 44 43 42 42 41 40 41 42 43 42 41 41 40 40 39 39 39 39 39 39
17 16 18 21 22 24 25 28 29 31 33 35 37 39 41 42 42 42 43 44 44 45 45 46 46 46 46 47 46 45 44 44 43 43 42 42 42 43 43 43 42 40 40 40 40 39 39 40 40
15 16 17 17 20 22 23 25 26 28 30 32 34 36 38 41 42 42 42 42 43 45 47 47 47 47 47 47 46 46 45 46 45 44 45 44 43 43 43 43 42 41 41 40 40 39 38 38 38
12 14 14 16 19 20 20 23 24 23 26 30 32 34 37 39 41 41 42 42 43 44 45 47 48 48 48 48 47 47 45 45 45 44 44 45 44 43 43 44 43 43 42 41 40 40 38 37 37
11 13 14 16 18 18 19 21 22 22 23 27 29 32 34 36 38 40 41 42 43 44 44 45 46 48 48 49 48 47 47 45 45 44 43 44 44 43 42 42 43 43 43 42 41 40 39 38 38
11 11 14 16 17 18 18 19 21 22 22 24 28 31 33 34 36 37 39 41 43 44 44 44 45 46 48 48 48 47 48 47 46 45 45 44 44 43 42 42 41 42 42 42 41 41 40 40 39
11 12 13 15 18 19 19 19 20 21 22 22 25 29 32 34 35 36 38 39 41 42 44 45 44 44 46 47 48 47 47 47 47 46 45 44 43 42 42 41 41 42 42 41 41 41 40 40 40
13 13 14 16 18 19 21 19 21 22 23 25 27 29 30 32 33 35 37 38 38 40 42 43 43 44 45 46 47 46 47 47 48 47 46 45 44 44 43 42 42 42 42 42 42 42 41 40 41
14 15 15 16 17 20 21 19 21 22 24 25 26 29 30 31 32 33 36 38 38 39 40 41 42 43 44 45 45 46 45 46 46 45 46 46 45 45 44 43 43 43 43 43 42 42 42 41 41
Wind_Direction
242 241 239 237 237 239 239 239 236 234 234 233 232 233 233 234 235 234 233 231 230 230 229 227 228 229 230 229 230 230 231 232 234 238 243 244 246 248 251 262 272 283 295 303 312 321 324 326 326
243 241 238 237 238 238 239 238 236 234 235 234 233 233 233 233 234 235 233 232 231 232 231 230 229 229 230 230 231 232 234 234 235 236 241 244 245 248 250 259 271 283 291 298 306 312 316 319 320
242 240 239 238 238 238 238 238 237 235 234 234 234 234 235 234 235 235 234 232 231 231 231 231 230 231 231 232 232 233 233 234 236 238 240 242 245 247 250 258 268 277 285 292 300 308 310 312 314
242 239 239 238 238 237 236 236 236 235 235 234 235 235 236 235 235 235 233 232 230 231 232 231 231 232 233 233 233 234 234 235 236 238 240 240 243 248 253 259 267 274 279 286 294 301 306 309 310
241 239 238 238 238 238 236 236 235 234 235 235 235 236 236 235 233 234 234 232 231 232 232 232 232 233 234 235 235 236 238 237 236 236 239 241 242 247 254 261 266 273 279 282 289 296 300 305 307
241 239 237 237 237 237 236 235 235 234 234 235 236 235 235 235 234 234 234 234 232 231 232 233 234 234 235 235 236 237 237 235 236 237 238 241 242 245 250 258 265 270 277 283 285 291 298 302 304
242 240 239 238 237 237 236 235 235 235 236 235 236 235 234 234 234 234 235 235 234 232 232 234 235 236 236 236 236 237 236 236 236 238 240 242 244 245 249 255 261 268 274 280 285 290 295 299 301
242 241 239 237 236 236 235 234 234 234 235 235 235 234 234 234 234 234 234 235 234 233 233 234 236 236 237 237 236 236 237 237 237 238 239 242 244 246 248 253 259 264 271 278 282 288 293 297 299
240 239 239 237 236 235 233 232 232 233 233 233 234 233 233 233 234 235 235 234 233 233 234 235 237 236 237 237 237 237 238 238 238 239 240 241 244 246 248 253 257 263 268 274 278 283 290 294 297
239 238 238 237 236 236 233 232 233 233 233 234 233 233 233 234 234 235 236 235 234 234 235 236 237 237 237 237 237 237 238 240 240 240 241 242 244 246 248 252 257 262 266 270 276 281 285 290 294
238 238 236 234 234 235 233 232 233 234 234 235 235 234 235 235 235 235 234 234 234 233 234 236 236 237 238 237 237 238 239 240 242 242 242 244 246 247 249 253 257 261 264 268 274 280 283 287 290
240 238 235 233 233 235 234 232 232 233 233 234 235 235 235 236 235 235 235 234 233 233 234 235 236 237 239 238 238 239 241 243 243 243 244 245 246 248 249 253 257 260 262 266 270 277 282 286 287
241 238 235 233 233 234 234 233 233 232 232 234 235 235 234 234 234 234 235 235 234 234 234 236 237 237 238 237 238 239 241 243 244 245 245 245 246 248 249 252 255 259 262 265 269 275 280 284 286
241 239 237 236 235 235 235 234 233 232 234 234 235 236 236 235 234 235 235 235 234 234 235 235 236 237 238 238 239 241 242 243 245 245 246 246 246 248 249 253 256 258 261 265 268 274 277 282 284
241 239 240 239 237 236 236 235 234 233 235 235 235 235 236 235 236 236 236 236 235 235 236 236 236 237 237 238 240 242 242 243 245 245 246 247 247 248 250 251 254 257 261 264 267 272 276 279 282
243 241 241 239 238 237 235 235 234 234 235 236 236 235 236 237 236 236 236 236 237 236 237 236 237 238 237 238 240 241 242 245 246 246 247 247 247 248 250 252 254 256 260 263 266 270 275 277 280
243 242 241 238 237 237 235 235 234 235 235 236 237 237 236 236 236 236 236 236 237 237 236 236 237 238 237 238 241 242 243 245 246 247 248 248 248 249 251 253 255 257 259 262 265 268 272 276 279
244 242 241 238 234 236 236 235 234 234 235 236 237 237 237 235 236 236 236 236 236 237 235 236 236 237 238 239 240 243 244 245 246 249 248 249 250 250 251 254 256 258 260 262 265 268 271 275 279
241 242 242 238 235 237 238 237 234 234 235 236 236 237 237 236 236 236 235 235 235 236 236 236 236 236 239 241 242 244 246 247 248 248 248 249 250 251 253 255 257 258 260 263 266 270 272 275 278
241 243 243 238 236 239 237 237 236 235 237 237 236 236 237 236 234 235 235 234 233 233 234 236 236 238 239 241 244 247 249 248 248 249 248 249 251 252 254 255 256 258 261 263 266 270 272 275 277
246 244 242 237 236 238 238 239 236 235 236 236 236 236 236 235 236 235 234 233 232 233 234 236 238 239 241 241 243 246 250 250 248 250 250 250 251 253 253 255 257 258 261 265 267 270 272 274 276
253 246 244 241 239 239 239 241 239 238 237 237 236 236 237 237 238 238 236 236 235 235 237 239 240 241 242 243 243 246 247 248 248 250 251 250 251 253 254 254 257 259 261 264 267 270 273 274 276
254 248 247 244 242 244 243 246 243 241 237 236 236 236 237 236 237 238 238 238 238 236 237 239 240 242 244 245 246 246 246 247 249 250 250 251 252 253 254 255 257 260 262 264 267 271 273 275 276
253 253 254 252 249 248 247 250 248 243 240 238 236 236 237 237 237 237 238 239 239 239 239 240 242 244 245 246 246 247 246 247 249 249 250 250 252 253 255 256 257 259 262 264 266 269 272 275 275
254 253 257 260 258 255 254 255 251 248 243 240 239 239 238 238 238 238 239 239 239 239 240 241 243 245 245 246 248 247 247 248 248 248 250 251 252 253 255 256 257 259 260 262 266 268 270 273 275
266 258 258 265 263 258 258 259 253 250 247 243 241 241 240 240 239 240 241 241 240 240 241 243 244 246 247 248 248 247 247 248 248 248 250 251 252 254 255 257 259 259 260 262 265 266 269 271 274
277 268 263 267 266 264 261 262 254 252 252 247 243 242 242 242 242 242 241 241 242 242 243 244 246 248 248 248 247 248 249 249 249 250 251 253 253 254 256 257 258 259 260 260 262 265 269 271 273
281 283 277 271 270 268 266 261 256 254 256 252 247 245 245 244 244 242 241 241 242 243 245 246 247 249 249 249 249 249 250 250 250 251 252 254 255 256 256 256 256 258 258 260 263 266 268 270 272
286 283 285 280 273 273 273 265 263 262 259 256 252 248 246 245 245 246 244 242 242 244 245 246 247 248 249 249 250 251 251 251 251 252 252 253 254 256 256 256 256 258 259 260 263 264 266 268 271
292 284 288 286 280 275 275 274 268 267 262 259 256 252 251 249 248 248 247 244 244 245 246 246 248 248 249 249 250 251 251 251 251 252 252 252 254 256 256 256 258 258 259 260 262 263 266 269 271
Height
5808 5811 5814 5816 5819 5821 5824 5829 5834 5836 5838 5840 5842 5844 5846 5848 5851 5855 5855 5855 5856 5858 5860 5861 5862 5864 5865 5866 5867 5868 5869 5870 5871 5872 5872 5872 5872 5872 5872 5872 5872 5871 5870 5870 5869 5868 5868 5867 5866
5800 5803 5806 5808 5810 5813 5819 5824 5828 5831 5834 5835 5837 5838 5840 5843 5846 5848 5849 5851 5852 5854 5856 5858 5859 5861 5862 5864 5865 5866 5867 5868 5869 5870 5870 5871 5871 5871 5871 5871 5870 5870 5869 5869 5868 5867 5866 5866 5865
5791 5794 5798 5800 5802 5808 5814 5819 5823 5826 5828 5829 5831 5833 5836 5838 5841 5843 5845 5847 5848 5850 5852 5854 5856 5858 5860 5861 5863 5864 5865 5866 5867 5868 5868 5869 5869 5869 5869 5869 5869 5868 5868 5867 5867 5866 5865 5864 5863
5783 5785 5789 5792 5796 5803 5808 5813 5817 5820 5822 5824 5825 5828 5831 5834 5836 5838 5840 5842 5844 5846 5848 5850 5852 5854 5856 5858 5860 5861 5862 5863 5864 5865 5866 5867 5867 5867 5867 5867 5867 5867 5866 5866 5865 5864 5863 5863 5861
5773 5776 5779 5783 5790 5796 5801 5806 5810 5813 5816 5818 5820 5822 5825 5828 5830 5833 5835 5837 5839 5841 5843 5846 5848 5850 5852 5854 5856 5858 5859 5860 5862 5863 5864 5864 5864 5865 5865 5865 5865 5865 5864 5864 5863 5862 5862 5860 5859
5763 5766 5771 5776 5783 5789 5794 5799 5802 5806 5809 5812 5814 5816 5819 5822 5824 5827 5829 5832 5834 5836 5839 5841 5843 5845 5848 5850 5852 5854 5855 5857 5858 5859 5860 5861 5861 5862 5862 5863 5862 5862 5862 5861 5861 5860 5859 5858 5857
5755 5758 5762 5769 5775 5781 5787 5790 5794 5799 5802 5805 5807 5810 5813 5817 5819 5821 5823 5826 5829 5831 5834 5836 5838 5841 5843 5845 5847 5849 5851 5853 5854 5856 5857 5857 5858 5859 5859 5860 5860 5860 5859 5859 5858 5857 5857 5856 5854
5745 5749 5753 5760 5767 5773 5779 5782 5787 5791 5794 5797 5800 5803 5807 5811 5813 5815 5818 5820 5823 5826 5829 5831 5834 5836 5838 5840 5843 5845 5847 5849 5850 5852 5853 5853 5854 5855 5856 5856 5857 5856 5856 5856 5855 5854 5854 5853 5851
5735 5739 5744 5752 5759 5765 5770 5774 5778 5782 5785 5789 5792 5797 5801 5804 5807 5810 5812 5815 5818 5820 5823 5826 5828 5831 5833 5835 5837 5840 5842 5844 5846 5847 5848 5849 5850 5851 5852 5853 5853 5853 5853 5852 5852 5851 5850 5849 5848
5725 5729 5737 5745 5750 5755 5761 5765 5769 5773 5777 5781 5785 5789 5793 5797 5800 5803 5806 5809 5812 5815 5818 5821 5823 5825 5827 5830 5832 5834 5837 5839 5840 5842 5843 5845 5846 5847 5848 5848 5849 5849 5849 5849 5848 5847 5847 5846 5844
5716 5721 5729 5734 5740 5745 5751 5756 5760 5765 5769 5774 5778 5782 5785 5789 5793 5797 5800 5802 5806 5809 5812 5815 5817 5819 5822 5824 5827 5829 5831 5833 5835 5836 5838 5840 5841 5842 5843 5844 5844 5845 5845 5844 5844 5843 5842 5842 5840
5708 5713 5719 5725 5731 5736 5742 5747 5751 5756 5763 5767 5770 5774 5778 5782 5786 5789 5793 5796 5799 5802 5805 5808 5811 5814 5816 5818 5821 5823 5825 5827 5829 5830 5832 5834 5836 5837 5838 5839 5839 5840 5840 5840 5839 5839 5838 5837 5836
5701 5706 5711 5716 5722 5727 5733 5738 5742 5748 5754 5758 5761 5766 5771 5775 5778 5782 5785 5789 5792 5796 5799 5801 5804 5807 5809 5812 5814 5817 5819 5820 5822 5824 5826 5828 5830 5831 5833 5833 5834 5835 5835 5835 5834 5834 5833 5832 5831
5694 5698 5702 5708 5713 5718 5724 5729 5734 5741 5745 5749 5754 5758 5763 5767 5770 5774 5778 5781 5785 5788 5791 5794 5797 5800 5803 5806 5808 5810 5812 5814 5816 5818 5820 5821 5823 5825 5826 5827 5828 5829 5829 5829 5829 5828 5828 5827 5826
5687 5691 5695 5699 5704 5709 5714 5720 5726 5733 5736 5741 5746 5751 5755 5759 5762 5766 5770 5773 5777 5780 5783 5787 5790 5793 5796 5799 5801 5803 5805 5808 5809 5811 5813 5814 5816 5818 5819 5821 5822 5823 5823 5823 5823 5822 5822 5821 5820
5679 5682 5686 5692 5695 5700 5706 5711 5719 5722 5727 5732 5737 5742 5746 5751 5754 5758 5762 5766 5769 5772 5776 5779 5783 5786 5788 5791 5793 5796 5798 5800 5802 5804 5806 5807 5809 5811 5812 5813 5815 5816 5816 5816 5816 5816 5815 5814 5813
5670 5673 5677 5683 5686 5690 5695 5701 5709 5713 5718 5723 5728 5733 5738 5742 5746 5750 5753 5757 5761 5764 5767 5771 5774 5778 5781 5784 5786 5788 5790 5793 5795 5796 5798 5799 5801 5802 5804 5806 5807 5808 5809 5809 5809 5809 5808 5808 5807
5663 5665 5669 5673 5678 5682 5685 5692 5699 5703 5708 5713 5719 5724 5728 5733 5738 5741 5744 5748 5752 5755 5759 5762 5766 5769 5772 5775 5778 5780 5782 5784 5786 5788 5790 5792 5793 5794 5796 5798 5799 5800 5801 5801 5801 5801 5801 5800 5799
5657 5659 5662 5665 5669 5673 5677 5683 5688 5693 5698 5704 5709 5714 5719 5724 5728 5731 5736 5739 5743 5746 5750 5753 5757 5760 5763 5766 5769 5772 5774 5776 5778 5779 5781 5783 5784 5786 5788 5790 5791 5792 5793 5793 5793 5793 5793 5792 5792
5652 5654 5656 5659 5663 5665 5669 5673 5679 5683 5688 5694 5699 5704 5709 5714 5718 5722 5726 5730 5733 5737 5741 5745 5749 5752 5755 5758 5760 5762 5765 5767 5769 5770 5772 5774 5776 5778 5779 5781 5783 5784 5784 5785 5785 5785 5785 5784 5784
5648 5650 5652 5654 5657 5659 5662 5665 5670 5674 5678 5683 5689 5694 5700 5705 5709 5714 5717 5721 5725 5729 5733 5737 5740 5743 5746 5748 5751 5753 5755 5757 5759 5761 5762 5765 5767 5769 5770 5772 5774 5775 5776 5776 5777 5777 5777 5776 5776
5645 5647 5647 5649 5651 5653 5656 5657 5662 5666 5669 5674 5679 5684 5690 5695 5700 5704 5708 5713 5717 5721 5724 5728 5731 5734 5736 5739 5741 5743 5746 5748 5750 5752 5754 5755 5757 5759 5761 5763 5765 5766 5767 5768 5768 5768 5768 5768 5767
5642 5643 5644 5645 5646 5648 5650 5651 5655 5658 5661 5666 5671 5675 5681 5686 5690 5695 5699 5704 5707 5711 5714 5718 5721 5724 5726 5728 5731 5733 5736 5739 5741 5743 5744 5746 5748 5750 5752 5754 5755 5757 5758 5759 5759 5759 5759 5759 5759
5639 5640 5640 5641 5641 5643 5645 5646 5649 5652 5656 5659 5663 5667 5671 5676 5681 5685 5689 5693 5697 5701 5705 5708 5711 5713 5715 5718 5721 5723 5726 5728 5731 5733 5735 5736 5738 5741 5742 5744 5746 5747 5749 5749 5750 5750 5750 5750 5750
5637 5637 5638 5637 5637 5639 5640 5641 5644 5647 5649 5653 5656 5659 5663 5667 5671 5675 5679 5683 5687 5690 5694 5698 5701 5703 5706 5709 5711 5713 5716 5718 5721 5723 5725 5727 5729 5731 5733 5735 5737 5738 5739 5740 5741 5741 5741 5741 5741
5634 5635 5635 5635 5634 5635 5636 5637 5640 5642 5643 5645 5649 5652 5655 5658 5662 5666 5669 5673 5676 5680 5683 5687 5690 5693 5695 5698 5701 5703 5705 5708 5711 5713 5715 5717 5719 5721 5723 5725 5727 5728 5730 5731 5731 5732 5732 5732 5732
5632 5632 5633 5632 5630 5631 5631 5633 5635 5636 5637 5639 5641 5644 5646 5649 5653 5656 5660 5663 5666 5669 5673 5676 5679 5682 5685 5687 5690 5692 5695 5697 5700 5702 5705 5707 5709 5712 5713 5715 5717 5718 5720 5721 5722 5722 5723 5723 5723
5630 5629 5629 5628 5626 5625 5627 5628 5629 5630 5631 5633 5634 5636 5638 5641 5644 5647 5650 5653 5656 5659 5663 5666 5669 5672 5674 5677 5679 5682 5684 5687 5689 5691 5694 5697 5699 5701 5703 5705 5707 5708 5710 5711 5712 5713 5713 5713 5713
5628 5627 5625 5624 5623 5622 5622 5626 5624 5624 5625 5626 5628 5629 5630 5633 5635 5638 5640 5643 5647 5650 5652 5655 5658 5661 5663 5666 5668 5671 5674 5676 5679 5681 5684 5687 5689 5691 5693 5695 5697 5699 5700 5701 5702 5703 5703 5703 5703
5624 5623 5622 5621 5620 5618 5617 5622 5619 5619 5619 5619 5620 5621 5623 5624 5627 5629 5631 5634 5637 5639 5642 5645 5648 5650 5652 5655 5657 5660 5663 5665 5668 5671 5673 5676 5679 5681 5683 5685 5687 5688 5690 5691 5692 5692 5693 5693 5693